Regional Weather Roundup
Issued by NWS

Home | Current Version | Previous Version | Text Only | Print | Product List | Glossary On
Versions: 1 2 3 4 5 6 7 8 9 10 11 12 13 14 15 16 17 18 19 20 21 22 23 24 25 26 27 28 29 30 31 32 33 34 35 36 37 38 39 40 41 42 43 44 45 46 47 48 49 50
000
ASUS43 KLMK 221302
RWRKY
KENTUCKY REGIONAL WEATHER ROUNDUP
NATIONAL WEATHER SERVICE LOUISVILLE KY
900 AM EDT SAT JUL 22 2017

NOTE "FAIR" INDICATES FEW OR NO CLOUDS BELOW 12,000 FEET
WITH NO SIGNIFICANT WEATHER AND/OR OBSTRUCTIONS TO VISIBILITY.

KYZ001>023-026-027-061>063-070>075-221400-
WESTERN AND SOUTH CENTRAL KENTUCKY

CITY           SKY/WX    TMP DP  RH WIND       PRES   REMARKS
PADUCAH        SUNNY     83  75  77 SW8       29.92S HX  90
HENDERSON      SUNNY     82  76  81 SW6       29.93R
OWENSBORO      SUNNY     83  77  82 SW6       29.94R HX  92
HOPKINSVILLE   SUNNY     83  77  80 SW9       29.96R HX  92
BOWLING GREEN  SUNNY     84  76  76 SW6       29.97R HX  93
GLASGOW        NOT AVBL
$$

KYZ024-025-028>034-038-045-046-053-221400-
NORTH CENTRAL KENTUCKY

CITY           SKY/WX    TMP DP  RH WIND       PRES   REMARKS
LOUISVILLE/SDF CLOUDY    86  76  71 SW8       29.93R HX  96
LOUISVILLE/LOU CLOUDY    84  77  79 SW8       29.94R HX  94
FORT KNOX      SUNNY     80  74  84 SW6       29.95R
$$

KYZ035>037-039>044-047>052-055>060-089>105-221400-
NORTHEAST KENTUCKY

CITY           SKY/WX    TMP DP  RH WIND       PRES   REMARKS
LEXINGTON      CLOUDY    79  73  82 SW8       29.98R HAZE
COVINGTON      PTSUNNY   79  77  94 S7        29.92F FOG
FRANKFORT      CLOUDY    81  74  79 SW8       29.95R
$$

KYZ054-064>069-076>088-106>120-221400-
SOUTHEAST KENTUCKY

CITY           SKY/WX    TMP DP  RH WIND       PRES   REMARKS
JACKSON        SUNNY     78  72  81 CALM      30.02R
LONDON         SUNNY     79  72  79 SW5       30.03R
SOMERSET       CLOUDY    77  73  88 CALM      30.03R
MIDDLESBORO    MOSUNNY   74  73  96 CALM      30.06R
MONTICELLO     SUNNY     82  75  79 W10       30.03R
$$





USA.gov is the U.S. government's official web portal to all federal, state and local government web resources and services.